Location: St. Louis
(38.6270°N, 90.1994°W)
Time: 17:52:30
(UTC-06:00)

Transit 2A Rocket - Visible Passes

Search period start: 29 November 2021 00:00
Search period end: 09 December 2021 00:00
Orbit: 584 x 918 km, 66.7° (Epoch: 29 November)

Date Brightness Start Highest point End Pass type
(mag) Time Alt. Az. Time Alt. Az. Time Alt. Az.
29 Nov 5.2 17:36:27 10° NNW 17:42:32 80° ENE 17:48:12 10° SSE visible
29 Nov 8.1 19:21:21 10° WNW 19:24:17 14° W 19:27:08 10° SW visible
30 Nov 7.5 18:37:16 10° NW 18:42:00 25° WSW 18:46:31 10° SSW visible
01 Dec 6.5 17:53:58 10° NW 17:59:37 43° WSW 18:04:52 10° S visible
02 Dec 5.6 17:11:02 10° NNW 17:17:05 74° WSW 17:22:40 10° SSE visible
03 Dec 8.4 06:03:40 10° SE 06:06:43 15° ESE 06:09:53 10° ENE visible
03 Dec 8.2 18:12:35 10° WNW 18:16:18 17° WSW 18:19:53 10° SW visible
04 Dec 7.4 17:28:52 10° NW 17:33:59 30° WSW 17:38:48 10° SSW visible
05 Dec 7.0 06:18:17 10° S 06:23:22 38° ESE 06:28:49 10° NE visible
06 Dec 7.9 05:36:49 10° SSE 05:41:00 22° ESE 05:45:24 10° ENE visible
06 Dec 8.7 17:48:45 10° W 17:50:33 11° W 17:52:20 10° WSW visible
07 Dec 8.5 04:56:42 10° ESE 04:58:45 12° E 05:00:51 10° E visible
07 Dec 5.3 06:34:46 10° SSW 06:40:23 89° WNW 06:46:26 10° NNE visible
07 Dec 8.2 17:04:00 10° WNW 17:08:19 21° WSW 17:12:24 10° SSW visible
08 Dec 6.1 05:52:22 10° S 05:57:47 54° ESE 06:03:37 10° NE visible
